Fort Stewart, GA

10:34 PM EST on December 05, 2016 (GMT -0500)
Wright Army Air Field

Weather History for KLHW - January, 2014

Change the Weather History Date:

Friday, January 10, 2014

  Actual Average Record
Temperature  
Mean Temperature 62 °F -  
Max Temperature 68 °F 59 °F 80 °F (1972)
Min Temperature 55 °F 39 °F 15 °F (1970)
Degree Days  
Heating Degree Days 4    
Growing Degree Days 12 (Base 50)    
Moisture  
Dew Point 62 °F    
Average Humidity 100    
Maximum Humidity 100    
Minimum Humidity 99    
Precipitation  
Precipitation 0.05 in - - ()
Sea Level Pressure  
Sea Level Pressure 30.17 in    
Wind  
Wind Speed 4 mph (ESE)    
Max Wind Speed 12 mph    
Max Gust Speed -    
Visibility 5 miles    
Events Fog , Rain    
Averages and records for this station are not official NWS values.
T = Trace of Precipitation, MM = Missing Value Source: NWS Daily Summary

Daily Weather History Graph

Daily Weather History Graph

Search for Another Location

Airport or City:

Trip Planner

Search our weather history database for the weather conditions in past years. The results will help you decide how hot, cold, wet, or windy it might be!

Date:

Astronomy

Jan. 10, 2014 Rise Set
Actual Time 7:27 AM EST 5:40 PM EST
Civil Twilight 7:00 AM EST 6:07 PM EST
Nautical Twilight 6:30 AM EST 6:37 PM EST
Astronomical Twilight 6:01 AM EST 7:06 PM EST
Moon 1:38 PM EST (1/10) 2:39 AM EST (1/10)
Length of Visible Light 11h 06m
Length of Day
10h 13m
Waxing Gibbous, 75% of the Moon is Illuminated
Jan 10
Waxing Gibbous
Jan 15
Full
Jan 24
Last Quarter
Jan 30
New
Feb 6
First Quarter

Hourly Weather History & Observations

Time (EST) Temp. Dew Point Humidity Pressure Visibility Wind Dir Wind Speed Gust Speed Precip Events Conditions
12:08 AM 55.4 °F 55.4 °F 100% 30.30 in 10.0 mi NNE 5.8 mph - N/A   Light Drizzle
12:12 AM 55.4 °F 55.4 °F 100% 30.30 in 10.0 mi NE 5.8 mph - N/A   Overcast
12:22 AM 55.4 °F 55.4 °F 100% 30.30 in 10.0 mi East 4.6 mph - N/A   Mostly Cloudy
12:27 AM 55.4 °F 55.4 °F 100% 30.30 in 10.0 mi ENE 5.8 mph - N/A   Overcast
12:42 AM 55.4 °F 55.4 °F 100% 30.28 in 10.0 mi NE 5.8 mph - N/A   Overcast
12:58 AM 55.9 °F 55.9 °F 100% 30.29 in 10.0 mi NNE 2.3 mph - 0.00 in   Overcast
1:18 AM 55.4 °F 55.4 °F 100% 30.28 in 10.0 mi NNE 2.3 mph - N/A   Overcast
1:58 AM 56.3 °F 56.3 °F 100% 30.28 in 10.0 mi ENE 3.5 mph - N/A   Overcast
2:33 AM 55.4 °F 55.4 °F 100% 30.26 in 9.0 mi Calm Calm - N/A   Overcast
2:37 AM 55.4 °F 55.4 °F 100% 30.26 in 9.0 mi Calm Calm - N/A   Light Drizzle
2:48 AM 55.4 °F 55.4 °F 100% 30.25 in 7.0 mi Calm Calm - N/A   Overcast
2:58 AM 56.1 °F 56.1 °F 100% 30.26 in 5.0 mi Calm Calm - 0.00 in   Overcast
3:08 AM 55.4 °F 55.4 °F 100% 30.25 in 2.0 mi NNE 4.6 mph - N/A   Overcast
3:58 AM 57.2 °F 57.2 °F 100% 30.24 in 3.0 mi Calm Calm - N/A   Overcast
4:13 AM 57.2 °F 57.2 °F 100% 30.23 in 5.0 mi Calm Calm - N/A   Overcast
4:18 AM 57.2 °F 57.2 °F 100% 30.22 in 5.0 mi Calm Calm - N/A   Overcast
4:38 AM 57.2 °F 57.2 °F 100% 30.22 in 2.5 mi Calm Calm - N/A   Overcast
4:43 AM 57.2 °F 57.2 °F 100% 30.22 in 1.8 mi Calm Calm - N/A   Overcast
4:58 AM 56.1 °F 56.1 °F 100% 30.22 in 1.2 mi Calm Calm - N/A   Overcast
5:23 AM 55.4 °F 55.4 °F 100% 30.21 in 1.0 mi Calm Calm - N/A   Mist
5:38 AM 55.4 °F 55.4 °F 100% 30.21 in 0.8 mi Calm Calm - N/A   Mist
5:58 AM 55.4 °F 55.4 °F 100% 30.23 in 0.5 mi Calm Calm - N/A Fog Fog
6:48 AM 55.4 °F 55.4 °F 100% 30.21 in 1.0 mi Calm Calm - N/A   Mist
6:58 AM 55.4 °F 55.4 °F 100% 30.22 in 1.2 mi Calm Calm - N/A   Overcast
7:03 AM 55.4 °F 55.4 °F 100% 30.22 in 2.0 mi Calm Calm - N/A   Overcast
7:08 AM 57.2 °F 57.2 °F 100% 30.22 in 3.0 mi Calm Calm - N/A   Overcast
7:23 AM 57.2 °F 57.2 °F 100% 30.22 in 3.0 mi Calm Calm - N/A   Overcast
7:28 AM 57.2 °F 57.2 °F 100% 30.22 in 2.0 mi Calm Calm - N/A   Overcast
7:33 AM 57.2 °F 57.2 °F 100% 30.22 in 1.2 mi Calm Calm - N/A   Overcast
7:38 AM 57.2 °F 57.2 °F 100% 30.22 in 0.8 mi Calm Calm - N/A   Mist
7:43 AM 57.2 °F 57.2 °F 100% 30.22 in 0.5 mi Variable 2.3 mph - N/A Fog Fog
7:48 AM 57.2 °F 57.2 °F 100% 30.22 in 0.5 mi Calm Calm - N/A Fog Fog
7:58 AM 57.2 °F 57.2 °F 100% 30.23 in 0.5 mi Calm Calm - N/A Fog Fog
8:28 AM 59.0 °F 59.0 °F 100% 30.23 in 1.0 mi SE 2.3 mph - N/A   Mist
8:33 AM 59.0 °F 59.0 °F 100% 30.23 in 1.5 mi Calm Calm - N/A   Overcast
8:43 AM 59.0 °F 59.0 °F 100% 30.24 in 1.0 mi Calm Calm - N/A   Mist
8:48 AM 59.0 °F 59.0 °F 100% 30.24 in 0.8 mi Calm Calm - N/A   Mist
8:58 AM 59.0 °F 59.0 °F 100% 30.25 in 0.8 mi East 4.6 mph - N/A   Mist
9:28 AM 60.8 °F 60.8 °F 100% 30.23 in 1.2 mi ESE 4.6 mph - N/A   Overcast
9:33 AM 60.8 °F 60.8 °F 100% 30.23 in 2.0 mi ESE 5.8 mph - N/A   Overcast
9:43 AM 60.8 °F 60.8 °F 100% 30.23 in 1.5 mi ESE 5.8 mph - N/A   Overcast
9:58 AM 62.6 °F 62.6 °F 100% 30.24 in 3.0 mi ESE 4.6 mph - N/A   Overcast
10:28 AM 64.4 °F 64.4 °F 100% 30.23 in 10.0 mi SE 5.8 mph - N/A   Overcast
10:43 AM 64.4 °F 64.4 °F 100% 30.22 in 10.0 mi SE 8.1 mph - N/A   Overcast
10:58 AM 66.0 °F 66.0 °F 100% 30.22 in 10.0 mi ESE 10.4 mph - N/A   Overcast
11:10 AM 66.2 °F 66.2 °F 100% 30.21 in 10.0 mi SE 5.8 mph - N/A   Light Drizzle
11:11 AM 66.2 °F 66.2 °F 100% 30.21 in 10.0 mi SE 5.8 mph - N/A   Overcast
11:18 AM 66.2 °F 66.2 °F 100% 30.20 in 10.0 mi SE 5.8 mph - N/A   Light Drizzle
11:23 AM 66.2 °F 66.2 °F 100% 30.20 in 10.0 mi SSE 5.8 mph - N/A   Light Drizzle
11:28 AM 66.2 °F 66.2 °F 100% 30.20 in 10.0 mi SE 6.9 mph - N/A   Overcast
11:38 AM 68.0 °F 68.0 °F 100% 30.19 in 10.0 mi SE 6.9 mph - N/A   Overcast
11:43 AM 68.0 °F 68.0 °F 100% 30.19 in 10.0 mi SE 8.1 mph - N/A   Overcast
11:58 AM 68.5 °F 68.5 °F 100% 30.19 in 10.0 mi SE 10.4 mph - 0.00 in   Overcast
12:03 PM 68.0 °F 68.0 °F 100% 30.18 in 10.0 mi SE 10.4 mph - N/A   Overcast
12:08 PM 68.0 °F 68.0 °F 100% 30.17 in 10.0 mi SE 9.2 mph - N/A   Overcast
12:18 PM 68.0 °F 68.0 °F 100% 30.17 in 8.0 mi SE 11.5 mph - N/A   Overcast
12:58 PM 68.5 °F 68.5 °F 100% 30.15 in 10.0 mi ESE 6.9 mph - N/A   Overcast
1:07 PM 68.0 °F 68.0 °F 100% 30.13 in 6.0 mi ESE 8.1 mph - N/A Rain Light Rain
1:12 PM 68.0 °F 68.0 °F 100% 30.13 in 2.5 mi ESE 6.9 mph - N/A Rain Light Rain
1:18 PM 68.0 °F 68.0 °F 100% 30.13 in 2.5 mi ESE 8.1 mph - N/A   Overcast
1:23 PM 68.0 °F 68.0 °F 100% 30.13 in 5.0 mi SE 8.1 mph - N/A   Overcast
1:53 PM 68.0 °F 68.0 °F 100% 30.12 in 9.0 mi SE 9.2 mph - N/A   Overcast
1:58 PM 68.0 °F 68.0 °F 100% 30.13 in 10.0 mi SE 9.2 mph - 0.02 in   Overcast
2:01 PM 68.0 °F 68.0 °F 100% 30.12 in 9.0 mi SE 9.2 mph - N/A Rain Light Rain
2:06 PM 68.0 °F 68.0 °F 100% 30.12 in 6.0 mi SE 4.6 mph - N/A   Light Drizzle
2:18 PM 68.0 °F 68.0 °F 100% 30.11 in 7.0 mi SE 6.9 mph - N/A   Overcast
2:50 PM 68.0 °F 68.0 °F 100% 30.11 in 4.0 mi ESE 6.9 mph - N/A Rain Light Rain
2:58 PM 68.0 °F 67.8 °F 99% 30.11 in 3.0 mi SE 5.8 mph - 0.01 in Rain Light Rain
3:03 PM 68.0 °F 68.0 °F 100% 30.11 in 2.5 mi SE 4.6 mph - N/A Rain Light Rain
3:12 PM 68.0 °F 68.0 °F 100% 30.10 in 4.0 mi SSE 6.9 mph - N/A   Overcast
3:47 PM 68.0 °F 68.0 °F 100% 30.10 in 6.0 mi ESE 5.8 mph - N/A   Overcast
3:58 PM 67.8 °F 67.8 °F 100% 30.11 in 5.0 mi ESE 6.9 mph - 0.02 in   Overcast
4:58 PM 66.2 °F 66.2 °F 100% 30.11 in 10.0 mi ESE 8.1 mph - N/A   Overcast
5:03 PM 66.2 °F 66.2 °F 100% 30.09 in 6.0 mi ESE 6.9 mph - N/A   Overcast
5:28 PM 66.2 °F 66.2 °F 100% 30.09 in 2.5 mi ESE 9.2 mph - N/A   Overcast
5:38 PM 66.2 °F 66.2 °F 100% 30.09 in 3.0 mi ESE 5.8 mph - N/A   Overcast
5:43 PM 66.2 °F 66.2 °F 100% 30.09 in 2.5 mi ESE 6.9 mph - N/A Rain Light Rain
5:53 PM 66.2 °F 66.2 °F 100% 30.09 in 3.0 mi ESE 3.5 mph - N/A Rain Light Rain
5:58 PM 66.0 °F 66.0 °F 100% 30.11 in 5.0 mi ENE 1.2 mph - 0.00 in Rain Light Rain
6:03 PM 66.2 °F 66.2 °F 100% 30.10 in 8.0 mi ESE 4.6 mph - N/A Rain Light Rain
6:08 PM 66.2 °F 66.2 °F 100% 30.10 in 10.0 mi East 4.6 mph - N/A Rain Light Rain
6:10 PM 66.2 °F 66.2 °F 100% 30.10 in 10.0 mi East 4.6 mph - N/A   Overcast
6:40 PM 64.4 °F 64.4 °F 100% 30.10 in 10.0 mi ESE 6.9 mph - N/A   Overcast
6:58 PM 64.4 °F 64.4 °F 100% 30.12 in 10.0 mi SE 4.6 mph - 0.00 in   Overcast
7:08 PM 64.4 °F 64.4 °F 100% 30.11 in 10.0 mi ESE 4.6 mph - N/A   Overcast
7:13 PM 64.4 °F 64.4 °F 100% 30.11 in 9.0 mi ESE 5.8 mph - N/A   Overcast
7:23 PM 64.4 °F 64.4 °F 100% 30.10 in 5.0 mi ESE 6.9 mph - N/A   Overcast
7:33 PM 64.4 °F 64.4 °F 100% 30.11 in 6.0 mi ESE 6.9 mph - N/A   Overcast
7:48 PM 64.4 °F 64.4 °F 100% 30.10 in 9.0 mi SE 6.9 mph - N/A   Overcast
7:58 PM 64.8 °F 64.8 °F 100% 30.11 in 10.0 mi ESE 4.6 mph - N/A   Overcast
8:58 PM 63.7 °F 63.7 °F 100% 30.11 in 7.0 mi Calm Calm - N/A   Overcast
9:03 PM 62.6 °F 62.6 °F 100% 30.09 in 3.0 mi SE 3.5 mph - N/A   Mostly Cloudy
9:08 PM 62.6 °F 62.6 °F 100% 30.09 in 2.5 mi ESE 4.6 mph - N/A   Mostly Cloudy
9:13 PM 62.6 °F 62.6 °F 100% 30.09 in 1.8 mi ESE 3.5 mph - N/A   Scattered Clouds
9:18 PM 62.6 °F 62.6 °F 100% 30.09 in 1.0 mi Calm Calm - N/A   Mist
9:23 PM 60.8 °F 60.8 °F 100% 30.09 in 0.8 mi Calm Calm - N/A   Mist
9:28 PM 60.8 °F 60.8 °F 100% 30.09 in 0.5 mi Calm Calm - N/A Fog Fog
9:58 PM 61.5 °F 61.5 °F 100% 30.09 in 1.0 mi Calm Calm - N/A   Overcast
10:03 PM 60.8 °F 60.8 °F 100% 30.09 in 1.2 mi Calm Calm - N/A   Overcast
10:13 PM 62.6 °F 62.6 °F 100% 30.08 in 3.0 mi Calm Calm - N/A   Overcast
10:18 PM 62.6 °F 62.6 °F 100% 30.08 in 6.0 mi Calm Calm - N/A   Overcast
10:33 PM 62.6 °F 62.6 °F 100% 30.08 in 3.0 mi Calm Calm - N/A   Overcast
10:38 PM 62.6 °F 62.6 °F 100% 30.08 in 1.8 mi Calm Calm - N/A   Overcast
10:43 PM 62.6 °F 62.6 °F 100% 30.07 in 1.0 mi Calm Calm - N/A   Mist
10:48 PM 62.6 °F 62.6 °F 100% 30.07 in 0.8 mi Calm Calm - N/A   Mist
10:58 PM 62.6 °F 62.6 °F 100% 30.08 in 0.5 mi Calm Calm - N/A Fog Fog
11:58 PM 62.6 °F 62.6 °F 100% 30.08 in 0.5 mi Variable 1.2 mph - N/A Fog Fog